Wind_Speed
7 6 6 4 4 4 5 5 6 6 6 6 6 6 6 6 6 6 6 6 6 6 6 6 6 7 7 7 8 8 8 9 9 10 10 11 11 12 12 12 12 12 13
7 7 6 5 5 4 5 7 7 7 7 7 7 7 7 7 7 7 7 7 7 7 7 7 7 7 8 8 9 9 9 10 11 11 12 12 12 13 13 13 13 14 14
7 7 7 6 6 6 6 8 8 8 8 8 8 7 8 8 8 7 8 8 8 8 8 8 8 8 9 9 10 10 11 11 12 12 13 13 14 14 14 15 15 15 15
7 8 8 7 7 8 8 8 8 9 9 8 8 9 9 9 9 8 8 8 8 8 9 9 9 9 9 10 10 11 12 12 13 13 14 14 15 15 15 16 16 16 17
8 8 9 8 9 9 9 9 9 10 10 10 9 10 10 10 9 9 10 10 9 10 10 10 10 11 11 11 11 12 13 13 14 14 15 15 15 16 16 16 16 17 17
10 10 10 9 9 10 10 10 10 10 11 11 11 11 10 10 10 11 11 10 10 11 11 12 12 12 12 13 13 14 14 15 15 16 16 16 16 16 17 17 17 17 18
10 10 10 10 10 11 10 10 10 10 11 11 11 11 11 12 12 12 12 11 11 12 12 12 13 13 14 14 14 14 14 16 17 17 18 17 17 17 17 18 18 18 19
9 10 10 9 9 10 10 10 10 10 10 11 11 11 11 12 12 12 12 12 12 12 12 13 13 14 14 15 15 16 16 17 17 18 18 19 18 18 18 19 19 19 19
9 10 10 11 10 11 11 11 11 11 11 11 12 12 12 12 13 13 13 13 13 13 14 14 15 15 15 16 16 16 17 18 18 18 18 19 19 20 20 20 21 21 20
10 11 12 13 13 13 13 13 13 13 13 13 12 13 13 13 14 14 14 15 15 15 15 15 16 16 17 17 17 17 18 18 19 18 19 19 19 21 21 21 21 22 21
11 12 14 14 14 14 14 15 15 15 14 14 14 14 14 14 15 14 15 15 15 15 16 16 16 17 17 18 17 17 18 18 18 19 19 19 20 20 21 22 22 22 22
13 14 15 15 15 15 16 16 17 16 16 16 16 16 16 16 16 15 15 14 15 16 17 18 18 18 18 19 19 18 19 19 19 19 19 19 20 20 20 21 21 21 21
14 14 15 16 16 17 18 18 18 18 18 18 18 18 18 18 18 17 16 15 16 17 18 19 20 20 19 19 19 19 19 20 20 20 20 20 20 21 21 21 21 21 22
15 15 17 17 17 18 19 20 19 19 19 19 19 19 19 18 18 18 17 16 16 17 18 19 20 20 18 18 18 19 20 20 20 21 21 21 22 21 21 21 20 21 22
17 17 18 19 19 19 20 21 21 21 21 20 20 20 20 20 19 18 18 18 18 18 19 19 19 19 18 18 19 19 20 20 21 21 22 23 23 22 22 21 20 21 22
18 18 19 21 21 21 22 22 21 21 22 22 21 22 21 21 20 19 19 19 19 19 19 19 20 19 19 19 19 20 20 21 21 21 22 22 22 22 22 22 22 22 23
19 20 20 21 21 22 22 22 21 22 22 22 22 22 21 21 21 20 19 18 19 19 19 20 20 20 20 20 20 20 21 21 22 22 22 22 22 22 23 24 24 23 24
20 21 21 21 22 23 24 24 24 23 22 23 23 22 21 21 20 19 19 19 20 20 20 21 21 21 21 21 21 21 21 22 22 22 23 23 22 23 24 24 24 25 25
22 22 22 23 23 25 25 24 24 23 23 23 22 21 21 21 21 20 20 20 20 21 21 21 21 22 23 23 22 22 22 22 22 23 23 23 23 24 24 25 25 26 26
22 23 23 24 25 25 24 23 24 24 24 24 23 21 20 20 20 20 20 21 22 22 22 22 22 23 23 23 23 23 23 23 23 24 24 24 24 24 24 25 25 25 25
23 23 24 25 25 24 24 24 24 23 24 24 22 20 20 21 21 21 21 21 22 22 23 23 23 23 23 23 24 24 24 24 24 25 25 25 25 25 25 26 25 25 25
22 24 25 25 26 25 25 25 25 25 24 23 22 20 19 20 21 22 21 21 22 22 23 23 24 23 23 24 24 25 25 25 24 25 26 26 27 26 26 27 26 25 26
24 26 26 25 25 25 24 23 22 23 22 22 20 20 21 21 22 22 22 24 24 24 24 23 23 23 23 24 24 25 25 25 24 25 25 26 26 26 27 27 27 27 27
24 25 25 25 25 25 24 23 22 21 21 21 20 20 20 21 22 23 23 23 24 24 23 23 23 23 24 24 25 26 26 25 25 25 25 26 25 26 27 28 27 27 28
24 24 24 24 24 24 23 22 21 20 20 20 20 20 20 21 22 23 22 22 23 23 22 22 22 23 23 24 25 25 25 25 25 25 25 25 25 26 26 27 28 28 28
21 22 22 22 22 22 21 20 20 20 21 20 20 20 20 20 21 21 21 22 22 22 21 22 23 23 24 24 24 24 24 24 24 24 24 24 24 25 26 27 28 28 28
Wind_Direction
315 318 316 307 304 296 288 285 283 278 279 283 283 283 284 279 278 278 281 283 284 283 281 281 281 280 280 279 277 276 274 271 270 267 265 263 260 257 254 251 250 249 247
310 312 309 298 300 297 285 279 278 275 278 281 282 282 282 280 276 276 281 284 286 284 282 282 286 284 280 278 276 274 272 271 270 269 266 262 261 258 255 253 251 249 248
309 312 311 302 297 299 292 282 278 279 282 283 283 283 282 279 276 275 276 282 283 282 282 281 283 283 279 276 273 272 272 272 271 271 268 264 262 258 255 253 252 250 249
304 302 302 300 299 302 296 291 284 285 286 288 287 285 285 281 278 279 278 282 283 281 281 279 279 280 280 278 275 273 272 273 273 272 270 266 263 260 257 254 253 252 252
303 299 298 296 296 298 294 289 287 286 286 289 289 287 285 280 280 283 281 279 281 283 282 282 279 278 279 282 278 276 274 273 273 272 271 268 264 263 260 256 254 254 253
301 303 302 295 294 295 292 288 285 285 287 289 290 289 285 280 284 286 281 279 280 282 281 282 280 281 280 282 279 277 276 274 272 270 269 266 264 262 261 258 258 256 253
299 301 300 301 299 290 286 285 292 290 290 292 292 291 287 286 286 287 282 280 282 284 283 285 283 283 283 284 281 280 279 277 272 270 268 266 264 262 260 259 258 257 254
298 297 295 297 299 297 295 294 293 297 295 294 293 292 289 286 285 286 285 281 284 287 288 287 288 287 283 284 281 281 280 280 274 270 267 265 265 262 260 260 257 255 253
296 296 294 293 295 296 296 297 297 298 298 294 289 289 287 287 288 287 286 285 285 285 289 291 290 286 283 283 282 279 280 280 277 272 271 269 265 263 261 259 256 254 252
293 294 294 292 294 294 293 292 295 294 293 291 288 287 284 285 286 285 284 285 286 288 288 291 292 288 286 284 283 279 279 279 277 274 272 269 267 265 262 258 258 254 252
291 294 294 290 293 294 291 290 292 293 289 288 287 286 284 284 285 282 280 281 283 288 289 290 291 290 288 287 284 282 281 279 277 275 273 271 269 268 265 262 260 256 253
289 290 290 287 289 290 289 290 290 290 289 286 285 285 284 282 282 282 283 282 282 284 288 290 290 288 289 288 286 285 283 281 278 275 272 271 270 270 269 266 263 259 254
281 282 282 284 283 286 289 289 288 289 288 286 285 283 281 280 280 280 281 284 286 286 288 288 288 287 288 287 285 284 283 283 278 276 274 271 272 271 269 267 266 263 259
277 278 280 283 283 284 286 286 285 286 284 282 282 282 279 280 280 280 280 284 286 288 289 289 291 286 286 285 284 285 284 283 279 277 275 272 272 272 271 269 268 265 263
282 283 282 282 282 282 282 283 285 283 281 278 278 278 278 277 279 278 281 283 284 285 285 288 291 286 286 286 287 286 284 282 278 277 276 273 272 271 270 268 269 266 264
285 286 284 283 282 283 285 283 284 284 283 280 276 274 274 275 276 275 279 282 283 282 284 287 288 284 284 286 286 285 284 280 276 275 274 273 272 272 271 270 269 267 265
284 284 286 283 282 283 285 283 281 283 281 283 278 276 273 273 274 274 277 280 281 284 283 285 284 283 283 284 285 285 285 282 278 274 273 273 273 272 272 270 268 266 266
284 284 285 285 285 285 286 284 282 283 282 283 283 278 275 275 274 275 278 280 282 283 284 284 283 284 284 284 284 285 284 283 280 276 274 274 273 272 270 269 268 266 265
284 282 284 286 286 286 284 282 282 282 282 281 280 277 274 274 275 277 278 280 281 282 282 284 284 286 285 283 283 284 285 283 280 278 276 274 273 272 270 268 267 266 265
281 281 283 286 287 286 283 283 283 281 281 282 280 276 275 274 275 274 277 279 280 281 282 284 284 284 286 284 284 283 284 282 281 279 276 274 274 273 271 269 268 266 264
281 281 283 285 286 285 283 283 281 281 281 282 281 278 278 277 273 273 276 281 282 282 282 282 283 283 284 284 283 283 283 283 281 279 277 275 274 273 271 269 268 265 264
283 283 283 284 284 284 282 281 279 280 282 283 285 281 278 277 275 275 277 280 281 282 280 280 280 281 284 286 285 283 283 281 280 279 278 275 273 272 272 271 268 266 266
280 281 282 282 281 281 280 279 277 279 282 283 283 281 280 278 277 279 279 281 281 283 281 279 281 282 284 286 285 284 283 282 280 279 278 277 274 273 272 271 269 267 267
281 283 282 282 280 280 278 275 275 278 281 281 281 279 277 279 279 281 281 282 283 283 283 280 281 282 283 285 286 285 284 284 283 281 278 277 276 275 274 272 271 270 269
282 284 284 282 280 279 278 277 276 277 280 281 281 281 279 280 281 281 281 282 282 282 285 284 283 283 285 286 287 286 283 283 284 283 279 277 276 276 276 274 273 271 271
286 286 284 282 280 279 279 278 277 277 278 279 280 281 282 281 280 280 281 282 283 285 287 286 285 286 287 288 289 289 285 283 284 284 281 278 276 276 275 275 273 272 271
Height
5888 5887 5886 5885 5885 5884 5883 5883 5882 5882 5881 5880 5880 5879 5878 5878 5877 5877 5876 5876 5875 5875 5875 5875 5875 5875 5874 5874 5874 5874 5874 5874 5875 5875 5875 5875 5875 5875 5875 5875 5876 5876 5877
5886 5885 5884 5884 5883 5882 5882 5881 5881 5880 5879 5878 5877 5877 5876 5875 5875 5874 5874 5873 5873 5873 5873 5873 5872 5872 5872 5872 5872 5872 5872 5872 5872 5872 5872 5872 5872 5873 5873 5873 5873 5874 5874
5884 5883 5882 5882 5881 5880 5880 5879 5879 5878 5877 5876 5875 5874 5873 5873 5872 5872 5871 5871 5871 5870 5870 5870 5870 5870 5870 5870 5870 5869 5869 5869 5869 5869 5869 5870 5870 5870 5870 5870 5870 5871 5871
5882 5881 5880 5880 5879 5878 5878 5877 5877 5876 5875 5874 5873 5872 5871 5870 5870 5869 5869 5868 5868 5868 5868 5867 5867 5867 5867 5867 5867 5866 5866 5866 5866 5866 5866 5866 5866 5866 5867 5867 5867 5868 5868
5880 5879 5878 5877 5877 5876 5875 5875 5874 5874 5873 5872 5871 5870 5869 5867 5867 5866 5866 5865 5865 5865 5865 5864 5864 5864 5864 5864 5864 5863 5863 5863 5862 5862 5862 5862 5863 5863 5863 5864 5864 5864 5865
5877 5877 5876 5875 5875 5874 5873 5872 5872 5871 5870 5869 5868 5867 5866 5864 5863 5863 5863 5862 5862 5862 5861 5861 5861 5861 5861 5861 5860 5860 5860 5859 5859 5859 5859 5859 5859 5859 5859 5860 5860 5861 5861
5875 5874 5874 5873 5872 5872 5870 5870 5869 5869 5868 5867 5866 5864 5863 5861 5861 5860 5859 5859 5858 5858 5858 5858 5858 5858 5858 5857 5857 5856 5856 5856 5855 5855 5855 5855 5855 5855 5856 5856 5856 5857 5857
5873 5872 5871 5870 5870 5869 5869 5868 5866 5866 5865 5864 5863 5861 5860 5859 5858 5857 5857 5856 5855 5855 5855 5855 5855 5854 5854 5854 5853 5853 5852 5851 5851 5850 5850 5850 5851 5851 5851 5852 5852 5852 5853
5871 5870 5869 5868 5867 5867 5866 5865 5864 5863 5862 5861 5860 5859 5857 5856 5855 5855 5854 5853 5852 5852 5852 5851 5851 5850 5850 5850 5849 5848 5848 5847 5846 5846 5845 5846 5846 5847 5847 5847 5847 5848 5848
5868 5867 5866 5866 5864 5864 5863 5862 5862 5861 5859 5858 5857 5856 5854 5853 5852 5851 5851 5850 5849 5849 5848 5848 5847 5846 5846 5845 5845 5844 5844 5843 5842 5841 5841 5841 5842 5842 5842 5842 5843 5843 5843
5865 5865 5864 5863 5862 5861 5860 5859 5858 5857 5856 5855 5854 5853 5851 5850 5849 5848 5847 5847 5846 5846 5845 5844 5843 5842 5841 5841 5840 5839 5839 5838 5837 5837 5836 5837 5837 5837 5837 5837 5837 5838 5838
5862 5862 5861 5860 5859 5858 5857 5855 5854 5853 5852 5851 5850 5849 5848 5847 5846 5845 5844 5843 5842 5841 5841 5840 5839 5838 5837 5837 5836 5835 5834 5834 5833 5832 5832 5832 5832 5832 5832 5832 5832 5833 5833
5859 5858 5857 5856 5856 5855 5853 5852 5850 5849 5848 5847 5846 5845 5844 5843 5842 5841 5840 5839 5838 5838 5837 5836 5835 5834 5833 5832 5831 5830 5830 5829 5828 5828 5828 5828 5827 5827 5827 5827 5827 5828 5828
5856 5855 5854 5853 5852 5851 5849 5848 5846 5845 5844 5843 5842 5841 5840 5839 5838 5837 5836 5835 5834 5834 5833 5832 5831 5830 5829 5828 5827 5826 5825 5824 5824 5823 5823 5823 5822 5822 5822 5822 5822 5822 5823
5852 5851 5850 5849 5848 5846 5845 5844 5842 5840 5838 5837 5836 5836 5835 5834 5833 5833 5832 5831 5830 5829 5829 5828 5826 5825 5824 5823 5822 5821 5821 5820 5819 5818 5818 5817 5817 5817 5817 5816 5816 5817 5817
5848 5847 5846 5844 5843 5842 5841 5839 5837 5836 5834 5833 5831 5830 5830 5829 5829 5828 5828 5827 5826 5825 5824 5823 5822 5821 5820 5819 5818 5817 5816 5815 5814 5813 5812 5812 5811 5811 5811 5811 5811 5811 5811
5844 5843 5841 5840 5838 5837 5836 5833 5831 5831 5829 5828 5826 5825 5824 5823 5823 5823 5823 5822 5822 5821 5820 5819 5818 5816 5815 5814 5813 5812 5811 5809 5808 5808 5807 5806 5805 5805 5805 5805 5805 5805 5805
5839 5838 5837 5835 5834 5833 5831 5829 5827 5825 5824 5823 5822 5821 5820 5820 5820 5819 5818 5818 5817 5816 5815 5814 5813 5812 5811 5809 5808 5806 5805 5804 5803 5802 5801 5801 5800 5799 5799 5799 5799 5799 5799
5834 5833 5832 5831 5829 5827 5825 5823 5822 5820 5819 5818 5817 5816 5815 5815 5815 5814 5814 5813 5812 5811 5810 5809 5808 5807 5806 5804 5802 5801 5800 5798 5797 5797 5796 5795 5794 5793 5793 5792 5792 5792 5793
5829 5828 5827 5825 5824 5822 5820 5818 5817 5816 5814 5812 5812 5810 5810 5810 5810 5809 5808 5808 5807 5806 5805 5804 5803 5801 5800 5798 5797 5795 5794 5793 5791 5791 5790 5789 5788 5788 5787 5786 5786 5786 5786
5823 5823 5822 5820 5818 5816 5815 5813 5811 5810 5809 5807 5806 5805 5805 5805 5805 5804 5803 5802 5801 5800 5799 5798 5797 5795 5794 5792 5791 5789 5788 5786 5785 5784 5783 5782 5782 5781 5780 5780 5779 5779 5779
5818 5817 5816 5814 5812 5811 5809 5807 5806 5804 5803 5802 5801 5800 5800 5800 5800 5799 5798 5797 5796 5794 5794 5792 5791 5789 5788 5786 5785 5783 5782 5781 5779 5778 5776 5776 5775 5774 5774 5773 5773 5773 5772
5812 5811 5809 5808 5806 5805 5803 5802 5800 5799 5798 5797 5796 5795 5795 5795 5794 5793 5792 5791 5790 5788 5787 5786 5784 5783 5782 5780 5778 5777 5776 5774 5773 5772 5770 5769 5767 5767 5767 5766 5766 5766 5765
5806 5804 5802 5801 5800 5799 5797 5796 5794 5794 5793 5792 5791 5790 5790 5789 5789 5788 5787 5785 5784 5783 5781 5780 5778 5777 5775 5774 5772 5770 5769 5767 5766 5765 5764 5762 5761 5760 5759 5759 5758 5758 5758
5799 5798 5796 5795 5794 5792 5791 5790 5789 5788 5788 5787 5786 5785 5784 5784 5783 5782 5781 5780 5778 5777 5776 5774 5772 5771 5769 5767 5766 5764 5762 5761 5758 5757 5756 5755 5754 5753 5752 5751 5751 5750 5750
5793 5791 5790 5789 5788 5786 5785 5784 5784 5783 5782 5781 5781 5780 5779 5778 5777 5776 5775 5774 5773 5771 5769 5768 5766 5765 5763 5761 5759 5757 5755 5754 5752 5750 5749 5748 5747 5746 5745 5744 5743 5742 5742